Tracking 19212 objects as of 17-Jul-2018
HD Live streaming from Space Station
objects crossing your sky now

FENGYUN 1C DEB

Track FENGYUN 1C DEB now!
10-day predictions


NORAD ID: 29897
Int'l Code: 1999-025GT
Perigee: 849.7 km
Apogee: 1,325.4 km
Inclination: 98.6 °
Period: 106.8 minutes
Semi major axis: 7458 km
RCS: 0.0153 m2 (small)
Launch date: May 10, 1999
Source: People's Republic of China (PRC)
Launch site: Taiyaun Space Center, China (TSC)

Note: This is SATELLITE DEBRIS
aabbcc
Your satellite tracking list
Your tracking list is empty




NASA's NSSDC Master Catalog

Two Line Element Set (TLE):
1 29897U 99025GT  18197.46529243 +.00000778 +00000-0 +97351-3 0  9991
2 29897 098.6239 016.0782 0318847 263.6831 123.0893 13.47784104564075
Source of the keplerian elements: AFSPC